Location: Alpha Ridge Park
(39.3209°N, 76.9128°W)
Time: 06:19:16
(UTC-04:00)

S-56A Canister/Altair - Visible Passes

Search period start: 14 October 2019 00:00
Search period end: 24 October 2019 00:00
Orbit: 633 x 2499 km, 38.9° (Epoch: 13 October)

Date Brightness Start Highest point End Pass type
(mag) Time Alt. Az. Time Alt. Az. Time Alt. Az.
14 Oct 10.5 03:17:33 17° ESE 03:17:33 17° ESE 03:21:33 10° E visible
14 Oct 9.2 05:14:59 32° SW 05:18:57 59° SSE 05:30:07 10° ENE visible
15 Oct 10.9 02:46:50 10° ESE 02:46:50 10° ESE 02:47:07 10° E visible
15 Oct 8.9 04:44:16 45° S 04:46:07 53° SSE 04:56:21 10° ENE visible
15 Oct 9.3 06:42:14 10° W 06:50:52 87° S 07:03:59 10° E visible
16 Oct 9.1 04:13:30 46° SE 04:13:30 46° SE 04:22:37 10° ENE visible
16 Oct 9.1 06:10:57 17° WSW 06:17:43 85° S 06:30:07 10° E visible
17 Oct 9.7 03:42:43 34° ESE 03:42:43 34° ESE 03:48:56 10° E visible
17 Oct 8.9 05:40:10 30° WSW 05:44:41 82° SSE 05:56:18 10° E visible
18 Oct 10.3 03:11:54 21° E 03:11:54 21° E 03:15:17 10° E visible
18 Oct 8.6 05:09:20 49° WSW 05:11:43 78° SSE 05:22:32 10° E visible
19 Oct 10.8 02:41:05 12° E 02:41:05 12° E 02:41:39 10° E visible
19 Oct 8.4 04:38:31 72° S 04:38:52 73° SSE 04:48:50 10° E visible
19 Oct 9.2 06:35:57 11° W 06:43:50 87° S 06:56:23 10° E visible
20 Oct 8.9 04:07:40 54° ESE 04:07:40 54° ESE 04:15:13 10° E visible
20 Oct 8.9 06:05:06 22° W 06:10:46 88° S 06:22:33 10° E visible
21 Oct 9.7 03:36:49 33° E 03:36:49 33° E 03:41:41 10° E visible
21 Oct 8.7 05:34:14 37° W 05:37:45 88° S 05:48:46 10° E visible
22 Oct 10.4 03:05:57 19° E 03:05:57 19° E 03:08:13 10° E visible
22 Oct 8.3 05:03:23 63° W 05:04:50 88° S 05:15:02 10° E visible
23 Oct 8.3 04:32:32 78° ESE 04:32:32 78° ESE 04:41:23 10° E visible
23 Oct 9.0 06:29:58 14° W 06:36:49 76° SSW 06:48:36 10° ESE visible
